[[{"header":{"parameterUnit":"m.s-1","parameterCategory":1,"la1":30.2991,"la2":30.254,"lo1":-89.0895,"lo2":-89.0444,"dy":0.0017,"dx":0.0017,"nx":28,"ny":28,"refTime":"2025-05-25T21:00:00:Z","depth":0,"parameterNumber":2,"parameterNumberName":"U-component_of_WINDS"},"data":[0,0,0,0,0,0,0,0,0,0,0,0,0,0,0,0,0,0,0,0,0,0,0,0,0,0,0,0,0,0,0,0,0,0,0,0,0,0,0,0,0,0,0,0,0,0,0,0,0,0,0,0,0,0,0,0,0,0,0.4424,0.4426,0,0.454,0.4541,0.4543,0.4591,0.4591,0.4591,0.459,0.4712,0.4715,0.4718,0,0,0,0,0,0,0,0,0,0,0,0,0,0.4247,0.4249,0.4424,0.4426,0.4427,0.454,0.4541,0.4543,0.4591,0.4591,0.4591,0.459,0.4711,0.4715,0.4719,0,0,0,0,0,0,0,0,0,0,0,0,0,0.4339,0.425,0.4424,0.4465,0.4469,0.454,0.4541,0.4543,0.4591,0.4591,0.4591,0.459,0.4709,0.4714,0.4719,0.4758,0,0,0.4735,0.4737,0,0,0,0,0,0,0,0,0.4334,0.4346,0.4457,0.4462,0.4467,0.4551,0.4523,0.4616,0.4591,0.4545,0.459,0.459,0.4659,0.4668,0.469,0.4764,0.4769,0.4736,0.4739,0.4741,0.4742,0,0,0,0,0,0,0,0.4327,0.4341,0.447,0.4459,0.4465,0.4478,0.449,0.4541,0.4603,0.4549,0.4553,0.4566,0.4661,0.4685,0.4694,0.4771,0.4735,0.474,0.4743,0.4745,0.4882,0.4882,0,0,0,0,0,0,0.4314,0.4335,0.4466,0.4474,0.4398,0.4481,0.4495,0.4524,0.4602,0.4613,0.4566,0.4568,0.4677,0.4688,0.4698,0.4749,0.4741,0.4746,0.4749,0.4881,0.4882,0.4883,0,0,0,0,0,0,0.431,0.4325,0.4462,0.4405,0.4424,0.4485,0.4517,0.4527,0.4551,0.4615,0.4626,0.4579,0.4677,0.4691,0.4743,0.4754,0.4748,0.4753,0.4881,0.4882,0.4882,0.485,0,0,0,0,0,0,0.4305,0.4323,0.4338,0.4405,0.4427,0.4504,0.4517,0.4529,0.4559,0.4563,0.463,0.4641,0.4678,0.4735,0.4748,0.4761,0.4757,0.488,0.4881,0.4882,0.4851,0.485,0.4849,0,0,0,0,0,0.4298,0.4325,0.4339,0.4355,0.4447,0.4504,0.4517,0.4557,0.456,0.4576,0.4617,0.4639,0.475,0.474,0.4755,0.4769,0.488,0.4881,0.4882,0.4851,0.485,0.4849,0,0,0,0,0,0,0.4259,0.4335,0.4351,0.4401,0.4445,0.4512,0.4534,0.4555,0.4601,0.4602,0.4652,0.4667,0.4714,0.4747,0.4734,0.4811,0.4817,0.4821,0.4788,0.4788,0.4787,0.4778,0.4761,0,0,0,0,0,0.4256,0.4296,0.436,0.4398,0.442,0.4473,0.4499,0.4527,0.4576,0.4595,0.464,0.4687,0.4733,0.4762,0.4808,0.4855,0.4871,0.4873,0.4872,0.4871,0.4875,0.4903,0.4904,0.4887,0.4887,0.4887,0,0,0.4251,0.4297,0.432,0.4391,0.443,0.447,0.4488,0.4531,0.4562,0.4602,0.4654,0.4688,0.4744,0.4794,0.4818,0.4823,0.4883,0.4873,0.4872,0.4876,0.4904,0.4906,0.4907,0.4887,0.4887,0.4887,0,0,0.4262,0.4301,0.4337,0.4374,0.4431,0.4466,0.4474,0.4538,0.4562,0.4614,0.4645,0.4683,0.476,0.4799,0.4828,0.4853,0.4875,0.4866,0.4863,0.489,0.4891,0.4893,0.4902,0.4904,0.4869,0.4869,0.4869,0,0.4249,0.4311,0.4352,0.4393,0.4424,0.4461,0.4498,0.4532,0.4601,0.4622,0.4626,0.4723,0.4764,0.4823,0.4829,0.4852,0.4863,0.486,0.4887,0.4889,0.4891,0.4901,0.4904,0.4868,0.4868,0.4868,0.4868,0,0.4291,0.4334,0.4356,0.4421,0.4454,0.4492,0.454,0.4569,0.4593,0.4628,0.468,0.473,0.4786,0.4802,0.4826,0.4865,0.4866,0.4878,0.4884,0.4891,0.49,0.4904,0.4866,0.4867,0.4867,0.4867,0,0,0.4282,0.4369,0.4376,0.4406,0.4471,0.4505,0.4545,0.4599,0.4623,0.4669,0.4704,0.4768,0.478,0.4813,0.4842,0.4865,0.4882,0.4875,0.4877,0.4875,0.4928,0.4918,0.4922,0.4896,0.4897,0.4898,0.4923,0,0.4303,0.4376,0.4414,0.4471,0.451,0.4546,0.4581,0.4624,0.4657,0.4697,0.4733,0.4778,0.479,0.481,0.4834,0.4875,0.4893,0.4873,0.493,0.4932,0.4916,0.4927,0.4918,0.4939,0.4927,0.4928,0.4928,0,0.4337,0.4381,0.4442,0.4502,0.452,0.4551,0.4603,0.4639,0.469,0.4712,0.4749,0.4778,0.4822,0.4824,0.4885,0.4871,0.4896,0.492,0.4921,0.4929,0.4931,0.4935,0.4947,0.495,0.4934,0.4934,0.4933,0,0.4324,0.44,0.4446,0.447,0.4541,0.4562,0.4593,0.4643,0.4672,0.4718,0.4738,0.4788,0.4816,0.4855,0.4896,0.4894,0.4954,0.496,0.4974,0.4973,0.4986,0.4985,0.5002,0.5001,0.5001,0.5001,0.5001,0,0.4343,0.4379,0.4441,0.4469,0.451,0.4554,0.4593,0.4627,0.4671,0.4707,0.474,0.4773,0.4825,0.4865,0.4898,0.4944,0.4956,0.4976,0.4984,0.4973,0.497,0.4991,0.4991,0.5002,0.5001,0.5001,0.5001,0,0.4337,0.438,0.4432,0.4495,0.4511,0.4539,0.4593,0.4622,0.4656,0.4701,0.4714,0.4768,0.4816,0.4861,0.4925,0.4947,0.4994,0.5004,0.4976,0.4981,0.4993,0.4991,0.5025,0.5032,0.5025,0.5025,0.5025,0,0.4347,0.4375,0.444,0.4466,0.4496,0.4538,0.4568,0.4612,0.4642,0.4701,0.4723,0.4773,0.4816,0.4891,0.4937,0.4986,0.4998,0.5007,0.5006,0.4994,0.4999,0.4997,0.5,0.5006,0.5006,0.5006,0.5006,0,0.436,0.4379,0.4421,0.4471,0.4505,0.4547,0.4589,0.4608,0.466,0.4692,0.4742,0.4775,0.484,0.4889,0.4944,0.4976,0.5,0.5005,0.5011,0.5001,0.4984,0.4993,0.4975,0.5005,0.5005,0.5005,0.5005,0.5005,0.4362,0.4389,0.4439,0.4484,0.452,0.4559,0.4589,0.4627,0.4668,0.4724,0.4747,0.4797,0.4847,0.4922,0.4954,0.4994,0.4999,0.5008,0.501,0.5012,0.501,0.4976,0.5004,0.5004,0.5004,0.5004,0.5004,0,0.4377,0.4411,0.4452,0.451,0.4546,0.4563,0.4611,0.464,0.4683,0.4727,0.4768,0.4824,0.4872,0.4921,0.4972,0.4994,0.5006,0.5006,0.5006,0.5013,0.5002,0.4992,0.4996,0.4996,0.4996,0.4996,0.4996,0.4996,0.4389,0.4435,0.446,0.4524,0.4558,0.4607,0.4632,0.4668,0.4703,0.4764,0.4804,0.4835,0.4881,0.4935,0.498,0.4993,0.5011,0.5008,0.5024,0.5013,0.5013,0.5014,0.5004,0.5011,0.5011,0.5031,0.5031,0.5032]},{"header":{"parameterUnit":"m.s-1","parameterCategory":1,"la1":30.2991,"la2":30.254,"lo1":-89.0895,"lo2":-89.0444,"dy":0.0017,"dx":0.0017,"nx":28,"ny":28,"refTime":"2025-05-25T21:00:00:Z","depth":0,"parameterNumber":3,"parameterNumberName":"V-component_of_WINDS"},"data":[0,0,0,0,0,0,0,0,0,0,0,0,0,0,0,0,0,0,0,0,0,0,0,0,0,0,0,0,0,0,0,0,0,0,0,0,0,0,0,0,0,0,0,0,0,0,0,0,0,0,0,0,0,0,0,0,0,0,3.0737,3.0737,0,3.0728,3.0728,3.0727,3.0746,3.0746,3.0747,3.0748,3.0734,3.0733,3.0732,0,0,0,0,0,0,0,0,0,0,0,0,0,3.0767,3.0766,3.0737,3.0737,3.0737,3.0728,3.0728,3.0727,3.0746,3.0747,3.0747,3.0748,3.0734,3.0733,3.0732,0,0,0,0,0,0,0,0,0,0,0,0,0,3.0755,3.0766,3.0737,3.0745,3.0745,3.0728,3.0728,3.0727,3.0746,3.0747,3.0747,3.0748,3.0735,3.0733,3.0732,3.0705,0,0,3.0728,3.0727,0,0,0,0,0,0,0,0,3.0756,3.0754,3.0744,3.0744,3.0745,3.0739,3.0733,3.072,3.0745,3.0745,3.0748,3.0749,3.0735,3.0733,3.0729,3.0704,3.0704,3.0728,3.0727,3.0726,3.0726,0,0,0,0,0,0,0,3.0757,3.0755,3.0733,3.0744,3.0744,3.0748,3.0747,3.0731,3.0735,3.0745,3.0747,3.0746,3.0735,3.0731,3.0729,3.0703,3.0728,3.0726,3.0725,3.0725,3.0655,3.0655,0,0,0,0,0,0,3.0757,3.0755,3.0733,3.0733,3.0753,3.0746,3.0746,3.074,3.0735,3.0735,3.0745,3.0747,3.0733,3.0731,3.0729,3.0697,3.0726,3.0725,3.0724,3.0656,3.0655,3.0654,0,0,0,0,0,0,3.0758,3.0755,3.0734,3.0744,3.0742,3.0745,3.0738,3.0739,3.0735,3.0735,3.0735,3.074,3.0733,3.0731,3.0711,3.0696,3.0724,3.0723,3.0658,3.0656,3.0655,3.0632,0,0,0,0,0,0,3.0758,3.0755,3.0745,3.0744,3.0741,3.0717,3.0737,3.0738,3.0733,3.0735,3.073,3.073,3.0734,3.0713,3.071,3.0695,3.0722,3.0659,3.0657,3.0655,3.0634,3.063,3.0627,0,0,0,0,0,3.0759,3.0738,3.0745,3.0742,3.073,3.0716,3.0714,3.072,3.0732,3.0722,3.0722,3.073,3.0699,3.0711,3.0707,3.0692,3.066,3.0658,3.0655,3.0636,3.0631,3.0627,0,0,0,0,0,0,3.0736,3.0738,3.0745,3.0724,3.072,3.0719,3.0707,3.0715,3.0706,3.0708,3.0715,3.0714,3.0692,3.069,3.0704,3.0665,3.0681,3.0678,3.0668,3.0663,3.0659,3.066,3.0721,0,0,0,0,0,3.0729,3.0719,3.0721,3.0701,3.0699,3.0703,3.0698,3.0703,3.0698,3.0696,3.0695,3.0689,3.0678,3.067,3.066,3.0634,3.0633,3.0622,3.0618,3.0615,3.0612,3.0598,3.0593,3.0647,3.0647,3.0647,0,0,3.0713,3.0713,3.0706,3.0697,3.0694,3.0683,3.0702,3.0689,3.068,3.0694,3.0675,3.0674,3.0668,3.0645,3.0635,3.0643,3.0597,3.0612,3.061,3.0608,3.0595,3.059,3.0586,3.0645,3.0646,3.0646,0,0,3.0678,3.0677,3.0661,3.0659,3.0656,3.0659,3.0655,3.0653,3.0654,3.0636,3.0646,3.0635,3.0616,3.0611,3.0607,3.0571,3.0579,3.0568,3.0547,3.0534,3.0529,3.0526,3.0513,3.0508,3.0565,3.0565,3.0565,0,3.0658,3.0643,3.0651,3.0638,3.0634,3.0648,3.0631,3.0628,3.062,3.0616,3.0626,3.0603,3.0599,3.0576,3.0567,3.0563,3.0558,3.0568,3.053,3.0526,3.0523,3.051,3.0505,3.0563,3.0564,3.0564,3.0564,0,3.0618,3.0607,3.0594,3.0589,3.0583,3.0568,3.0574,3.0566,3.0572,3.0574,3.0555,3.0553,3.0542,3.0537,3.0542,3.0514,3.0519,3.0529,3.0544,3.0516,3.0504,3.05,3.0561,3.0562,3.0562,3.0563,0,0,3.0567,3.0568,3.0563,3.0561,3.0559,3.055,3.0535,3.0527,3.052,3.0515,3.0502,3.0487,3.0496,3.049,3.0495,3.0483,3.0455,3.0495,3.0495,3.0487,3.0424,3.0416,3.0411,3.0461,3.046,3.0459,3.0424,0,3.0532,3.0509,3.0517,3.0492,3.0482,3.0496,3.0483,3.048,3.0481,3.0472,3.0473,3.0462,3.0475,3.0472,3.0461,3.0461,3.0443,3.0464,3.0448,3.0447,3.0448,3.0405,3.0396,3.0363,3.042,3.0419,3.0419,0,3.0488,3.0483,3.0458,3.0458,3.0454,3.0443,3.0436,3.0427,3.0424,3.0426,3.042,3.0428,3.0412,3.0429,3.0408,3.0422,3.0416,3.0415,3.0414,3.0412,3.0431,3.0401,3.0353,3.0348,3.0412,3.0412,3.0413,0,3.0453,3.044,3.0423,3.0421,3.0421,3.0413,3.0412,3.041,3.0404,3.0398,3.0394,3.0386,3.038,3.0373,3.0378,3.039,3.0355,3.0373,3.0356,3.0356,3.0347,3.0347,3.0297,3.0344,3.0344,3.0345,3.0345,0,3.0413,3.0397,3.0408,3.0397,3.0379,3.0389,3.037,3.0371,3.0369,3.0359,3.037,3.0359,3.0366,3.0356,3.0359,3.0341,3.0339,3.0339,3.034,3.0338,3.0338,3.0333,3.0335,3.0343,3.0344,3.0344,3.0344,0,3.037,3.0377,3.0359,3.0362,3.0362,3.0349,3.035,3.034,3.0343,3.0329,3.0327,3.0331,3.0319,3.0324,3.0311,3.0313,3.029,3.0294,3.0291,3.0292,3.0275,3.0276,3.0219,3.0212,3.0265,3.0264,3.0264,0,3.0344,3.0332,3.0333,3.0328,3.0327,3.0318,3.0313,3.0321,3.0315,3.0311,3.0301,3.0292,3.0284,3.0265,3.0266,3.0257,3.026,3.0241,3.0259,3.0257,3.0259,3.026,3.0259,3.0237,3.0237,3.0236,3.0236,0,3.0296,3.03,3.0293,3.0288,3.0282,3.0277,3.0273,3.0268,3.0277,3.0269,3.0259,3.0253,3.0241,3.0231,3.0223,3.0221,3.0229,3.023,3.0226,3.0223,3.0222,3.0222,3.0281,3.0231,3.0232,3.0232,3.0232,3.0232,3.026,3.0251,3.025,3.0242,3.0241,3.0238,3.0229,3.0231,3.0223,3.0215,3.022,3.0208,3.0205,3.0195,3.0192,3.0182,3.0189,3.0183,3.0181,3.0179,3.0177,3.0224,3.0181,3.0181,3.0181,3.0181,3.0181,0,3.0213,3.0214,3.0206,3.0202,3.0195,3.0206,3.0203,3.0196,3.0186,3.0183,3.0176,3.0164,3.0154,3.0155,3.0146,3.0138,3.0141,3.0135,3.0135,3.0134,3.0171,3.0176,3.0132,3.0132,3.0132,3.0132,3.0132,3.0132,3.0187,3.0172,3.0176,3.0159,3.016,3.0149,3.0147,3.0143,3.0141,3.0128,3.0121,3.0122,3.012,3.0112,3.0103,3.0103,3.0099,3.0091,3.0093,3.0127,3.0132,3.0136,3.0141,3.0091,3.009,3.0057,3.0057,3.0057]}]]